Overview Statistics Trail Chart Weather Telemetry Raw packets
 

This is the latest recevied weather packets stored in our database for station/object KB0VMZ. If no packets are shown the sender has not sent any weather packets the latest 10 day(s).

<< 1 2 3 4 5 6 7 >>
Time Temp. Humidity Pressure Rain* Wind** Luminosity Snow
1788562832 32.78° C 100% 0 hPa 0 mm 0.45 m/s, 135° - -
1788562232 32.78° C 100% 0 hPa 0 mm 0 m/s - -
1788561632 32.78° C 100% 0 hPa 0 mm 0.45 m/s, 225° - -
1788561032 33.33° C 100% 0 hPa 0 mm 0.45 m/s, 180° - -
1788560432 33.89° C 100% 0 hPa 0 mm 0.45 m/s, 67° - -
1788559832 33.89° C 100% 0 hPa 0 mm 0.45 m/s, 135° - -
1788559232 33.89° C 100% 0 hPa 0 mm 0.45 m/s, 135° - -
1788558632 34.44° C 100% 0 hPa 0 mm 1.34 m/s, 202° - -
1788558032 33.89° C 100% 0 hPa 0 mm 0.45 m/s, 180° - -
1788557432 34.44° C 100% 0 hPa 0 mm 1.79 m/s, 225° - -
1788556832 35° C 100% 0 hPa 0 mm 0.45 m/s, 90° - -
1788556232 35.56° C 100% 0 hPa 0 mm 0.89 m/s, 180° - -
1788555632 38.89° C 100% 0 hPa 0 mm 0 m/s - -
1788555032 40° C 100% 0 hPa 0 mm 0 m/s - -
1788554432 38.89° C 100% 0 hPa 0 mm 0.45 m/s, 135° - -
1788553832 39.44° C 100% 0 hPa 0 mm 2.24 m/s, 202° - -
1788553232 41.11° C 100% 0 hPa 0 mm 0.45 m/s, 157° - -
1788552632 41.67° C 100% 0 hPa 0 mm 0.45 m/s, 135° - -
1788552032 40.56° C 100% 0 hPa 0 mm 0.45 m/s, 180° - -
1788551433 41.11° C 100% 0 hPa 0 mm 0 m/s - -
1788550832 40.56° C 100% 0 hPa 0 mm 0.45 m/s, 135° - -
1788550232 40.56° C 100% 0 hPa 0 mm 0.45 m/s, 90° - -
1788549632 39.44° C 100% 0 hPa 0 mm 0.45 m/s, 135° - -
1788549032 40° C 100% 0 hPa 0 mm 0.89 m/s, 225° - -
1788548432 40.56° C 100% 0 hPa 0 mm 0.45 m/s, 112° - -

* Rain latest hour (hover to see other rain measurements)
** Current wind speed in m/s (hover to see current wind gust speed)